Temperature
18 18 18 18 18 18 18 18 17 17 17 17 18 18 18 18 18 18 18 17 17 17 17 17 17 17 17 17 17 17 17 17 17 17 17 17 16 16 16 16 16 16 16
18 18 18 18 18 18 17 17 17 17 17 17 18 17 18 18 18 18 17 17 17 17 17 17 17 17 17 17 17 17 17 17 17 17 17 17 16 16 16 16 16 16 16
18 18 18 18 18 17 17 17 17 17 17 17 18 18 18 18 18 18 18 17 17 17 17 17 17 17 17 17 17 17 17 17 17 17 17 17 16 16 16 16 16 16 16
18 18 18 18 18 17 17 17 17 17 17 17 18 18 18 18 18 18 18 18 18 18 18 17 17 17 17 17 17 17 17 17 17 17 17 17 16 16 16 16 16 16 16
18 18 18 18 17 17 17 17 17 17 17 18 18 17 18 18 18 18 18 18 18 18 18 18 17 17 17 17 17 17 17 17 17 17 17 17 16 16 16 16 16 16 16
18 18 18 18 17 17 17 17 17 18 18 18 17 17 18 18 18 18 18 18 18 18 18 18 18 17 17 17 17 17 17 17 17 17 17 16 16 16 16 16 16 16 16
18 18 18 18 18 18 18 18 17 18 18 17 17 17 18 18 18 18 18 18 18 18 18 18 18 17 17 17 17 17 17 17 17 17 16 16 16 16 16 16 16 16 16
18 18 18 18 18 18 18 18 18 18 18 17 17 17 17 18 18 18 18 18 18 18 18 18 17 17 17 17 17 17 17 17 17 17 16 16 16 16 16 16 16 16 16
18 18 18 18 18 18 18 18 18 18 18 18 17 17 17 17 18 18 18 18 18 18 17 17 17 17 17 17 17 17 17 17 17 17 16 16 16 16 16 16 16 16 16
18 18 18 18 18 18 18 18 18 18 18 18 17 17 17 17 17 17 18 18 18 18 18 17 17 17 17 17 17 17 17 17 17 16 16 16 16 16 16 16 16 16 16
18 18 18 18 18 18 18 18 18 18 18 17 17 17 17 17 17 17 17 17 17 17 17 17 17 17 17 17 17 17 17 17 17 16 16 16 16 16 16 16 16 16 15
19 19 18 18 18 18 18 18 18 18 18 17 17 17 17 17 17 17 17 17 17 17 17 17 17 17 17 17 17 17 17 16 16 16 16 16 16 16 16 15 15 15 15
19 19 19 18 18 18 18 18 18 18 18 17 17 17 17 17 17 17 17 17 17 17 17 17 17 17 17 16 16 16 16 16 16 16 16 16 16 16 15 15 15 15 15
19 19 19 19 18 18 18 18 18 18 18 17 17 17 17 17 17 17 17 16 16 16 17 17 17 17 16 16 16 16 16 16 16 16 16 16 16 15 15 15 15 15 15
19 19 19 19 18 18 18 18 18 18 17 17 17 17 17 17 17 17 16 16 16 16 16 17 17 17 16 16 16 16 16 16 16 16 16 15 15 15 15 15 15 15 15
19 19 19 19 18 18 18 18 18 17 17 17 17 17 17 17 17 17 16 16 16 16 16 16 16 16 16 16 16 16 16 16 15 15 15 15 15 15 15 15 15 14 14
19 19 19 19 18 18 18 18 18 18 17 17 17 17 17 17 17 17 16 16 16 16 16 16 16 16 16 16 15 15 15 15 15 15 15 15 15 15 14 14 14 14 14
19 19 19 19 18 18 18 18 18 18 17 17 17 17 17 17 17 16 16 16 16 16 16 16 16 16 16 15 15 15 15 15 15 15 15 14 14 14 14 14 14 14 14
19 19 19 18 18 18 18 18 18 17 17 17 17 17 17 16 16 16 16 16 16 16 16 16 16 16 15 15 15 15 15 15 15 14 14 14 14 14 14 14 14 14 14
19 19 18 18 18 18 18 18 17 17 17 17 17 17 17 16 16 16 16 16 16 16 16 15 15 15 15 15 15 15 15 15 14 14 14 14 14 14 14 14 13 13 13
19 18 18 18 18 17 17 17 17 17 17 17 17 17 17 16 16 16 16 16 16 15 15 15 15 15 15 15 15 15 14 14 14 14 14 14 14 13 13 13 13 13 13
18 18 18 18 18 17 17 17 17 17 17 17 17 17 17 16 16 16 16 16 16 15 15 15 15 15 15 15 14 14 14 14 13 14 13 13 13 13 13 13 13 13 13
18 17 17 17 17 17 17 17 17 17 17 17 17 17 17 16 16 16 16 15 15 15 15 15 15 15 15 14 14 14 14 13 13 13 13 13 13 13 13 13 13 12 12
17 17 17 17 17 17 17 17 17 17 17 16 16 16 16 16 16 15 15 15 15 15 15 15 15 15 14 14 14 14 14 13 13 13 13 13 13 13 13 12 12 12 12
17 17 17 17 17 17 17 17 16 16 16 16 16 16 16 16 15 15 15 15 15 15 14 14 14 14 14 14 13 13 13 13 13 13 12 12 12 12 12 12 12 12 11
17 17 17 17 17 17 17 16 16 16 16 16 16 15 15 15 15 15 15 15 15 14 14 14 14 14 14 13 13 13 13 13 13 12 12 12 12 12 11 11 11 11 11
Wind_Speed
2 1 1 1 2 3 3 2 1 1 0 1 1 1 2 3 5 6 7 9 10 10 11 12 12 12 13 13 13 12 12 12 12 12 11 11 11 11 10 10 9 9 9
3 2 2 1 2 3 3 3 2 1 1 0 1 1 2 3 5 6 6 8 10 10 11 12 13 13 13 13 13 13 13 13 13 13 12 12 12 12 12 11 11 10 10
5 3 2 2 2 3 3 2 1 1 1 1 1 1 2 3 4 5 6 7 8 10 11 12 13 14 14 14 14 14 14 14 14 14 14 13 13 13 13 13 12 12 12
6 4 3 3 3 3 2 2 1 1 1 1 1 2 2 2 4 5 6 7 7 8 10 12 13 14 14 14 14 15 15 15 15 15 15 15 14 14 14 14 14 14 13
7 5 3 3 4 3 2 2 2 2 2 2 2 2 2 2 3 4 5 6 7 8 8 9 13 14 14 14 15 15 15 15 16 16 16 16 15 15 15 14 14 14 14
7 6 4 3 4 2 2 2 2 2 2 2 1 1 2 3 2 3 4 5 6 7 7 7 7 9 12 14 14 15 15 16 16 17 16 16 16 15 15 15 15 14 14
7 6 3 3 4 4 3 3 2 2 1 1 1 1 2 2 2 3 3 3 4 5 6 7 7 7 8 10 13 14 15 15 16 16 16 16 16 16 16 16 16 16 15
6 6 5 4 4 3 3 3 3 2 1 2 2 1 2 3 2 2 2 2 3 4 5 6 7 7 7 7 8 11 13 14 14 14 14 15 15 15 15 15 15 15 15
6 6 6 5 4 4 4 4 4 4 3 2 2 3 2 3 2 2 1 2 2 3 4 5 6 8 8 8 8 9 11 11 12 13 13 13 14 14 14 14 14 13 12
5 5 6 5 4 4 4 4 4 3 3 3 2 2 2 2 1 2 2 1 2 3 4 4 5 6 7 7 8 9 10 10 10 11 11 12 13 13 13 13 13 12 12
3 4 5 5 4 4 4 4 4 4 4 4 3 2 2 1 2 2 3 2 2 2 3 3 3 4 5 6 6 7 8 8 8 9 9 10 11 11 11 12 12 12 13
2 3 4 4 4 4 4 4 4 4 4 4 3 3 3 2 3 3 3 3 3 2 2 2 2 3 3 4 5 6 7 7 8 7 7 8 9 10 10 10 11 11 12
3 4 4 4 4 4 4 4 4 4 4 4 4 3 3 3 2 3 2 2 2 2 1 1 2 2 3 3 4 5 5 6 6 6 6 6 7 8 9 9 9 9 10
5 4 5 5 5 4 4 4 4 4 4 5 5 4 3 4 3 3 3 2 2 2 2 2 1 2 2 2 3 4 3 4 4 4 5 5 5 6 6 6 6 7 8
4 5 5 5 4 4 4 4 4 4 4 4 4 5 4 3 3 4 4 4 3 3 3 2 2 1 2 2 3 3 3 3 4 4 4 4 4 5 4 4 4 4 5
4 5 5 5 5 4 4 4 3 3 4 4 3 4 4 3 3 3 4 4 4 4 3 2 2 1 1 2 2 2 2 3 3 3 4 4 4 4 4 4 4 4 4
5 5 5 5 5 5 5 5 5 4 5 4 4 4 5 4 3 3 3 3 4 4 4 3 2 1 2 2 1 2 2 2 2 3 3 3 4 3 3 3 3 3 3
5 5 5 6 6 6 5 5 6 5 5 5 5 5 5 4 4 3 3 4 4 4 4 4 2 2 2 2 2 2 2 2 2 2 3 3 4 4 3 3 3 3 3
5 5 5 6 6 6 6 6 6 5 5 6 5 5 5 4 4 4 4 4 3 3 3 3 3 2 2 1 1 2 2 1 2 3 3 4 4 4 4 4 4 3 3
5 5 6 6 5 5 5 6 6 6 6 6 6 6 6 6 6 5 4 5 4 3 3 3 3 2 2 1 2 2 2 2 2 2 2 3 4 4 4 4 4 5 4
6 5 5 4 4 4 5 5 6 6 6 6 5 5 6 6 7 6 5 5 4 4 3 3 3 2 3 2 3 3 3 2 2 2 2 2 3 3 3 4 5 5 5
5 4 5 5 5 5 6 7 6 5 5 6 5 5 5 6 6 7 7 7 7 6 5 4 4 4 5 5 4 3 3 2 3 2 3 3 2 3 3 4 5 5 5
5 4 5 5 5 5 7 7 7 5 5 5 5 5 4 4 5 4 5 5 6 6 7 6 5 6 5 5 5 5 5 5 4 2 3 3 2 3 3 4 6 6 6
5 5 6 6 6 6 7 7 7 6 5 5 5 5 5 4 4 4 4 4 4 4 5 5 5 6 5 4 6 6 5 4 1 1 3 3 2 3 2 2 5 7 7
5 5 6 7 6 6 6 7 6 4 4 5 5 4 4 4 4 5 5 4 4 3 3 4 4 3 2 3 4 3 3 3 3 2 2 2 2 2 1 1 3 7 8
5 5 5 4 4 4 5 6 7 4 4 4 3 3 4 4 4 6 5 5 5 4 2 1 1 0 0 1 3 4 4 4 2 2 3 3 2 2 1 1 2 3 5
Wind_Direction
144 142 150 141 142 143 138 139 137 124 102 58 100 157 197 210 208 205 213 219 223 220 217 214 210 208 207 205 205 204 204 204 204 205 206 205 203 203 205 205 208 211 212
169 165 169 170 179 177 171 168 175 180 241 263 293 267 237 231 222 215 217 223 227 225 224 221 215 213 213 213 211 210 211 212 211 211 213 213 212 211 213 213 215 217 220
184 178 173 183 202 195 179 171 172 164 224 241 271 273 250 235 227 219 221 224 228 230 229 226 222 220 221 222 219 217 217 216 216 216 218 218 219 218 218 219 220 223 224
192 182 181 198 201 188 177 170 166 161 206 230 254 266 261 250 240 228 225 227 228 232 234 232 229 227 228 228 228 225 223 222 219 220 221 222 223 221 222 222 224 226 228
196 188 192 201 190 178 182 193 173 171 195 222 242 256 262 255 247 235 229 231 230 231 235 239 235 233 234 235 234 232 227 224 222 223 224 224 225 225 225 225 226 228 231
197 190 196 199 183 177 187 185 177 177 193 205 238 281 284 265 245 238 237 233 232 232 232 234 236 237 237 237 237 235 230 228 226 225 226 227 227 226 226 225 226 229 231
197 187 196 191 184 189 195 181 170 175 190 158 114 332 320 289 256 248 244 238 237 235 231 229 230 232 240 242 241 240 237 234 229 228 230 230 230 229 229 228 228 230 232
199 198 190 194 189 184 181 176 168 162 184 164 152 129 328 329 320 284 254 237 240 235 236 236 229 231 236 239 240 242 241 237 234 233 233 232 230 229 230 231 231 231 232
200 196 189 189 187 181 191 194 184 177 189 197 180 166 178 243 300 311 275 252 243 234 241 242 238 236 235 234 238 242 241 239 237 237 235 231 230 229 228 230 231 231 230
195 195 191 186 184 186 196 205 195 191 180 197 202 214 204 182 203 302 309 287 266 252 251 250 245 237 234 232 233 237 236 234 237 238 236 231 230 228 225 225 227 229 230
200 199 190 180 185 194 203 203 194 196 193 192 189 187 194 200 197 213 277 304 306 270 255 248 243 238 230 228 231 232 228 228 231 234 235 230 225 224 224 227 230 232 232
212 205 188 183 190 201 206 204 199 201 204 200 196 191 184 185 198 200 235 266 284 286 284 263 244 237 232 227 228 226 224 223 225 227 230 231 229 226 227 231 233 234 234
214 215 200 193 200 205 205 195 194 206 204 200 203 209 211 211 189 185 205 239 261 284 299 275 249 236 231 225 230 221 221 218 217 217 218 226 230 231 230 231 232 236 234
217 208 199 201 206 203 205 195 200 208 203 205 211 208 214 222 204 199 197 199 246 274 268 264 265 227 227 223 229 219 213 207 204 211 217 223 225 228 227 223 227 233 230
212 199 197 200 204 198 195 189 201 210 199 206 215 218 222 227 214 216 213 203 201 240 259 245 243 243 220 217 222 207 206 211 209 209 205 203 207 210 208 211 220 225 227
209 194 197 199 196 193 192 191 204 213 209 221 221 221 226 231 224 217 217 216 208 212 240 239 231 256 231 216 217 204 207 211 207 196 193 193 195 205 208 208 217 225 228
200 196 196 195 197 199 197 198 208 205 214 227 229 228 235 223 216 215 211 209 210 201 225 251 228 238 206 211 210 201 213 215 218 204 202 196 188 188 197 206 212 219 226
203 202 197 200 203 205 201 204 216 212 215 226 230 228 237 225 215 217 211 214 217 212 211 237 236 219 218 215 218 222 218 218 221 214 205 199 195 194 192 194 201 202 203
205 202 202 209 211 208 204 207 213 217 219 225 224 222 229 218 224 224 220 222 224 218 206 215 237 228 232 214 219 230 228 230 229 222 212 212 209 203 201 199 196 193 190
205 208 211 215 215 214 211 209 210 215 219 223 223 223 225 217 223 221 222 223 217 209 204 210 230 237 240 225 211 226 239 237 236 223 210 211 216 212 209 205 202 199 195
216 211 207 210 210 212 217 210 213 218 220 225 227 229 230 223 221 217 217 214 205 207 208 220 232 231 229 222 228 220 229 236 232 218 214 218 216 221 223 224 219 210 201
208 199 199 202 210 221 213 204 205 219 220 223 231 236 235 232 230 221 220 211 200 203 211 218 231 234 237 229 222 218 216 225 244 209 208 230 208 225 230 224 216 203 198
195 203 212 212 222 229 217 214 210 213 219 223 226 229 232 234 216 218 219 213 211 210 206 209 223 234 238 224 210 215 217 224 234 207 191 228 214 233 238 220 199 188 181
199 207 217 222 225 236 225 221 214 212 222 227 225 220 215 223 220 208 205 211 221 225 224 219 229 239 240 224 213 218 219 220 229 211 196 226 220 232 234 208 191 187 178
215 217 216 216 220 234 223 216 205 211 222 231 230 224 214 216 219 196 197 215 233 249 238 221 231 247 248 215 192 182 184 198 234 226 202 220 222 222 225 222 194 186 182
220 217 222 222 221 236 228 212 201 212 222 229 228 226 221 219 213 193 203 210 230 244 220 208 213 308 216 185 184 197 197 201 218 229 201 201 203 191 219 225 200 178 183
Height
1539 1540 1542 1543 1545 1546 1547 1549 1550 1552 1553 1554 1555 1556 1557 1557 1558 1559 1560 1560 1561 1561 1562 1563 1564 1564 1565 1566 1567 1568 1569 1570 1571 1572 1573 1574 1575 1576 1577 1578 1579 1580 1581
1540 1541 1543 1544 1546 1547 1548 1550 1551 1552 1553 1554 1555 1556 1556 1557 1558 1558 1559 1560 1560 1561 1561 1562 1563 1563 1564 1565 1566 1567 1568 1569 1570 1571 1572 1573 1574 1575 1576 1576 1577 1578 1579
1541 1542 1543 1545 1546 1548 1549 1550 1551 1552 1553 1554 1555 1555 1556 1556 1557 1557 1558 1558 1559 1560 1560 1561 1561 1562 1563 1564 1564 1565 1566 1567 1568 1569 1570 1571 1572 1573 1573 1574 1575 1576 1577
1541 1542 1544 1545 1547 1548 1549 1550 1551 1552 1553 1554 1554 1554 1555 1555 1555 1556 1556 1557 1558 1558 1559 1559 1560 1560 1561 1562 1562 1563 1564 1564 1565 1566 1567 1568 1569 1570 1571 1572 1573 1574 1575
1541 1543 1544 1545 1546 1547 1548 1550 1551 1552 1552 1553 1553 1553 1553 1554 1554 1554 1555 1555 1556 1556 1557 1557 1558 1558 1559 1560 1560 1561 1561 1562 1563 1563 1564 1565 1566 1567 1568 1569 1570 1571 1572
1541 1543 1544 1545 1546 1547 1548 1549 1550 1551 1551 1552 1552 1552 1552 1552 1552 1552 1553 1554 1554 1554 1555 1555 1556 1556 1557 1557 1558 1558 1558 1559 1559 1560 1561 1562 1563 1563 1564 1565 1566 1567 1568
1541 1542 1543 1544 1545 1546 1547 1548 1549 1549 1550 1551 1551 1551 1551 1551 1551 1551 1551 1551 1552 1552 1553 1553 1553 1554 1554 1555 1555 1555 1556 1556 1556 1557 1558 1558 1559 1560 1561 1562 1562 1563 1564
1540 1541 1542 1543 1544 1545 1546 1547 1548 1548 1549 1549 1550 1550 1549 1550 1549 1549 1549 1549 1550 1550 1550 1551 1551 1551 1552 1552 1552 1552 1553 1553 1554 1554 1554 1555 1556 1557 1557 1558 1559 1559 1560
1538 1539 1541 1542 1543 1544 1545 1545 1546 1547 1547 1548 1548 1549 1549 1548 1547 1547 1547 1547 1548 1548 1548 1549 1549 1549 1549 1549 1549 1549 1549 1550 1550 1550 1551 1552 1552 1553 1553 1554 1555 1555 1556
1537 1538 1539 1540 1541 1542 1543 1544 1545 1545 1546 1546 1546 1547 1547 1547 1547 1546 1546 1545 1546 1546 1546 1546 1546 1546 1546 1546 1546 1546 1546 1546 1546 1547 1547 1548 1549 1549 1549 1550 1551 1551 1551
1535 1536 1537 1538 1539 1540 1541 1542 1543 1543 1543 1544 1544 1544 1545 1545 1545 1545 1543 1543 1543 1543 1543 1543 1543 1543 1543 1543 1543 1542 1543 1543 1543 1543 1544 1544 1545 1545 1546 1546 1546 1547 1547
1533 1535 1536 1537 1537 1538 1539 1540 1541 1541 1541 1542 1542 1542 1543 1543 1542 1543 1542 1541 1541 1541 1541 1541 1540 1540 1540 1540 1540 1539 1540 1540 1540 1540 1541 1541 1541 1542 1542 1542 1542 1542 1543
1531 1533 1534 1535 1535 1536 1537 1538 1538 1539 1539 1540 1540 1540 1540 1541 1541 1540 1540 1539 1539 1538 1538 1538 1538 1538 1537 1537 1537 1537 1537 1537 1537 1537 1537 1538 1538 1538 1538 1538 1538 1538 1539
1529 1530 1531 1532 1533 1534 1534 1535 1536 1536 1537 1537 1537 1537 1538 1538 1538 1538 1538 1538 1536 1536 1536 1536 1535 1535 1535 1535 1534 1534 1534 1533 1534 1534 1534 1534 1534 1534 1534 1534 1534 1535 1535
1527 1528 1529 1530 1530 1531 1532 1532 1533 1533 1534 1534 1534 1534 1535 1535 1535 1535 1535 1535 1535 1534 1533 1533 1533 1533 1533 1532 1532 1532 1531 1531 1531 1531 1530 1530 1530 1530 1530 1531 1531 1531 1531
1524 1525 1526 1527 1527 1528 1529 1530 1530 1531 1531 1531 1531 1531 1531 1531 1532 1532 1532 1532 1532 1532 1530 1530 1530 1530 1530 1530 1530 1529 1529 1528 1528 1528 1527 1527 1527 1527 1527 1527 1528 1528 1528
1521 1522 1522 1523 1524 1525 1526 1526 1527 1527 1528 1528 1528 1528 1528 1529 1528 1528 1528 1528 1529 1528 1527 1527 1527 1527 1527 1527 1527 1527 1526 1526 1525 1525 1525 1524 1524 1524 1524 1524 1524 1525 1525
1517 1518 1519 1520 1521 1522 1523 1523 1524 1524 1524 1525 1525 1525 1525 1525 1525 1525 1525 1525 1525 1525 1525 1524 1524 1524 1524 1524 1524 1523 1523 1523 1522 1522 1522 1522 1522 1521 1521 1521 1521 1522 1522
1513 1514 1515 1516 1517 1518 1518 1519 1520 1521 1521 1521 1522 1522 1522 1522 1521 1522 1522 1522 1522 1522 1521 1521 1521 1521 1520 1520 1520 1520 1520 1520 1519 1519 1519 1519 1519 1519 1519 1519 1519 1519 1519
1509 1510 1511 1512 1513 1513 1514 1515 1516 1516 1517 1517 1518 1518 1518 1517 1518 1518 1518 1518 1518 1518 1518 1518 1518 1518 1517 1517 1517 1517 1517 1517 1516 1516 1516 1516 1516 1516 1516 1516 1516 1516 1516
1504 1506 1507 1508 1509 1509 1510 1510 1511 1512 1513 1513 1513 1513 1514 1514 1514 1514 1514 1514 1514 1514 1514 1514 1514 1514 1514 1514 1514 1514 1513 1513 1513 1513 1513 1513 1513 1513 1513 1513 1513 1513 1513
1501 1502 1503 1504 1504 1505 1506 1506 1507 1508 1508 1508 1508 1509 1509 1510 1510 1510 1510 1510 1511 1511 1510 1510 1510 1510 1510 1510 1510 1510 1510 1510 1510 1510 1510 1510 1510 1510 1510 1510 1510 1510 1510
1496 1498 1499 1499 1499 1500 1501 1502 1502 1503 1503 1503 1504 1504 1504 1505 1506 1506 1506 1506 1507 1507 1507 1507 1507 1506 1507 1507 1507 1506 1506 1506 1506 1507 1507 1506 1506 1506 1507 1506 1507 1507 1507
1491 1492 1494 1494 1494 1495 1496 1497 1497 1498 1498 1499 1499 1499 1500 1500 1501 1502 1502 1502 1502 1503 1503 1503 1503 1503 1503 1503 1503 1503 1503 1503 1502 1502 1503 1502 1502 1502 1503 1502 1503 1503 1503
1487 1488 1488 1489 1490 1490 1491 1492 1493 1493 1493 1494 1495 1495 1495 1495 1496 1497 1498 1498 1498 1498 1499 1499 1499 1499 1499 1499 1499 1499 1498 1498 1498 1498 1498 1498 1498 1498 1499 1498 1499 1499 1499
1482 1483 1483 1484 1484 1485 1486 1487 1488 1488 1488 1489 1490 1490 1490 1491 1491 1492 1493 1493 1493 1494 1494 1494 1495 1494 1494 1494 1494 1494 1494 1494 1494 1494 1494 1494 1494 1495 1495 1495 1495 1495 1495